Skip Page Navigation
NASA JPL Caltech
NASA Logo - Jet Propulsion Laboratory + View the NASA Portal
+ Near-Earth Object (NEO) Program
Search JPL
JPL Home Earth Solar System Stars & Galaxies Technology
JPL Solar System Dynamics
BODIES ORBITS EPHEMERIDES TOOLS PHYSICAL DATA DISCOVERY FAQ SITE MAP
JPL Small-Body Database Browser
Search: [ help ]  
314212 (2005 NJ1)
Classification: Apollo [NEO, PHA]          SPK-ID: 2314212
Ephemeris | Orbit Diagram | Orbital Elements | Physical Parameters | Discovery Circumstances | Close-Approach Data ]

[ hide orbit diagram ]
Orbit Diagram
Note: Make sure you have Java enabled on your browser to see the applet. This applet is provided as a 3D orbit visualization tool. The applet was implemented using 2-body methods, and hence should not be used for determining accurate long-term trajectories (over several years or decades) or planetary encounter circumstances. For accurate long-term ephemerides, please instead use our Horizons system.
Orbit Viewer

Additional Notes: the orbits shown in the applet are color coded. The planets are white lines, and the asteroid/comet is a blue line. The bright white line indicates the portion of the orbit that is above the ecliptic plane, and the darker portion is below the ecliptic plane. Likewise for the asteroid/comet orbit, the light blue indicates the portion above the ecliptic plane, and the dark blue the portion below the ecliptic plane.

Orbit Viewer applet originally written and kindly provided by Osamu Ajiki (AstroArts), and further modified by Ron Baalke (JPL).


Orbital Elements at Epoch 2456400.5 (2013-Apr-18.0) TDB
Reference: JPL 42 (heliocentric ecliptic J2000)
 Element Value Uncertainty (1-sigma)   Units 
e .6506682826171023 8.7352e-08  
a 2.133567708506731 1.6343e-08 AU
q .7453228717653502 1.8224e-07 AU
i 6.468723526077582 1.803e-05 deg
node 316.4863449706704 5.8287e-05 deg
peri 82.32442040457785 5.8703e-05 deg
M 156.7226005306302 5.8783e-06 deg
tp 2455904.950319997607
(2011-Dec-09.45032000)
1.612e-05 JED
period 1138.303500559862
3.12
1.3079e-05
3.581e-08
d
yr
n .3162601185210603 3.6338e-09 deg/d
Q 3.521812545248112 2.6977e-08 AU
  Orbit Determination Parameters
   # obs. used (total)      181  
   data-arc span      2402 days (6.58 yr)  
   first obs. used      2005-07-02  
   last obs. used      2012-01-29  
   planetary ephem.      DE405  
   SB-pert. ephem.      SB405-CPV-2  
   condition code      0  
   fit RMS      .63389  
   data source      ORB  
   producer      Otto Matic  
   solution date      2013-Apr-29 15:41:42  

Additional Information
 Earth MOID = .0226913 AU 
 T_jup = 3.405 
[ show covariance matrix ]

Ephemeris | Orbit Diagram | Orbital Elements | Physical Parameters | Discovery Circumstances | Close-Approach Data ]

Physical Parameter Table
Parameter Symbol Value Units Sigma Reference Notes
absolute magnitude H 18.436 mag .59058 42 autocmod 2.5c

314212 (2005 NJ1)          Discovered 2005-Jul-02 by CSS at Catalina (703)
Reference: 20120207/Numbers.arcLast Updated: 2012-02-09

[ show close-approach data ]
Ephemeris | Orbit Diagram | Orbital Elements | Physical Parameters | Discovery Circumstances | Close-Approach Data ]
ABOUT SSD CREDITS/AWARDS PRIVACY/COPYRIGHT GLOSSARY LINKS
FirstGov 2013-May-18 14:01 UT
(server date/time)  
NASA Home Page
Site Manager:   Donald K. Yeomans
Webmaster  Alan B. Chamberlin